Apalachee Bay - Ochlockonee Bay Weather Center

Moon Phase Calendar



Online Cameras

 


      

Current Conditions in Wakulla
5/21/2022 12:33:54 PM

74°F
Feels Like 75
Clouds
Humidity
92%
Pressure
30.18"
Wind
20.1 mph (SSW)
Dew Point
72°F
UV Index
6/10 (High)
Visibility
3 mi

Hourly Forecast

Date & Time Sat, May 21
12:00 PM
Sat, May 21
1:00 PM
Sat, May 21
2:00 PM
Sat, May 21
3:00 PM
Sat, May 21
4:00 PM
Sat, May 21
5:00 PM
Sat, May 21
6:00 PM
Sat, May 21
7:00 PM
Sat, May 21
8:00 PM
Sat, May 21
9:00 PM
Sat, May 21
10:00 PM
Sat, May 21
11:00 PM
Sun, May 22
12:00 AM
Sun, May 22
1:00 AM
Sun, May 22
2:00 AM
Sun, May 22
3:00 AM
Sun, May 22
4:00 AM
Sun, May 22
5:00 AM
Sun, May 22
6:00 AM
Sun, May 22
7:00 AM
Sun, May 22
8:00 AM
Sun, May 22
9:00 AM
Sun, May 22
10:00 AM
Sun, May 22
11:00 AM
Sun, May 22
12:00 PM
Sun, May 22
1:00 PM
Sun, May 22
2:00 PM
Sun, May 22
3:00 PM
Sun, May 22
4:00 PM
Sun, May 22
5:00 PM
Sun, May 22
6:00 PM
Sun, May 22
7:00 PM
Sun, May 22
8:00 PM
Sun, May 22
9:00 PM
Sun, May 22
10:00 PM
Sun, May 22
11:00 PM
Mon, May 23
12:00 AM
Mon, May 23
1:00 AM
Mon, May 23
2:00 AM
Mon, May 23
3:00 AM
Mon, May 23
4:00 AM
Mon, May 23
5:00 AM
Mon, May 23
6:00 AM
Mon, May 23
7:00 AM
Mon, May 23
8:00 AM
Mon, May 23
9:00 AM
Mon, May 23
10:00 AM
Mon, May 23
11:00 AM
Condition
Rain

Clouds

Clouds

Rain

Clouds

Clouds

Clouds

Clouds

Clouds

Clouds

Clouds

Clouds

Clouds

Clouds

Clouds

Clouds

Clouds

Clouds

Clouds

Clouds

Clouds

Rain

Rain

Rain

Clouds

Clouds

Rain

Clouds

Clouds

Clouds

Clouds

Clouds

Clouds

Rain

Clouds

Clouds

Clouds

Rain

Rain

Rain

Clouds

Clouds

Clouds

Rain

Rain

Rain

Rain

Rain
Temperature 76°F74°F73°F73°F75°F76°F77°F77°F76°F76°F77°F78°F77°F76°F77°F77°F77°F77°F77°F77°F78°F78°F79°F78°F78°F79°F80°F81°F81°F81°F81°F81°F80°F79°F79°F79°F79°F79°F79°F79°F79°F79°F79°F78°F77°F74°F74°F73°F
Feels Like 77°F75°F75°F74°F76°F77°F78°F78°F77°F77°F78°F79°F78°F77°F77°F78°F78°F78°F78°F79°F79°F79°F79°F80°F80°F79°F84°F85°F84°F84°F84°F84°F80°F79°F79°F79°F79°F80°F79°F80°F79°F79°F79°F79°F78°F76°F75°F74°F
Cloudiness 80%81%82%89%92%96%100%100%100%65%82%88%91%93%94%100%100%100%100%100%100%100%100%100%100%100%100%100%100%100%100%98%97%97%97%98%99%99%99%100%100%100%100%100%100%100%100%100%
Visibility 4 mi3 mi5 mi6 mi6 mi6 mi6 mi6 mi6 mi6 mi6 mi6 mi6 mi6 mi6 mi6 mi6 mi6 mi6 mi6 mi6 mi6 mi6 mi6 mi6 mi6 mi6 mi6 mi6 mi6 mi6 mi6 mi6 mi6 mi6 mi6 mi6 mi6 mi6 mi6 mi6 mi6 mi6 mi6 mi4 mi2 mi6 mi6 mi
Precipitation 81%76%80%100%80%80%80%80%79%3%0%0%2%5%5%0%0%0%7%3%3%63%63%62%46%65%61%17%20%19%19%20%28%36%22%21%13%34%26%55%64%69%68%77%89%94%96%97%
Humidity 87%92%91%88%83%79%75%75%77%77%74%73%77%77%76%79%79%79%80%80%79%80%78%80%80%77%74%70%69%69%69%70%75%77%77%76%78%77%75%75%75%75%75%75%77%86%88%86%
Dew Point 71°F72°F71°F70°F69°F69°F68°F69°F68°F69°F68°F69°F69°F69°F69°F70°F70°F70°F70°F71°F71°F71°F71°F71°F72°F72°F71°F70°F70°F70°F70°F70°F71°F71°F71°F71°F71°F71°F70°F70°F70°F70°F70°F69°F69°F70°F70°F69°F
Pressure 30.18"30.18"30.18"30.18"30.15"30.15"30.15"30.12"30.09"30.15"30.18"30.18"30.18"30.18"30.15"30.15"30.15"30.15"30.15"30.18"30.21"30.21"30.21"30.21"30.21"30.21"30.18"30.18"30.15"30.15"30.15"30.12"30.12"30.12"30.12"30.15"30.12"30.12"30.12"30.12"30.09"30.09"30.09"30.09"30.12"30.12"30.15"30.15"
Wind Speed 17.8 mph20.1 mph4.3 mph7.3 mph15 mph10.2 mph5.4 mph3.6 mph2.8 mph7.2 mph9.6 mph11.5 mph14.9 mph18 mph17.9 mph17.3 mph13.6 mph10.8 mph8.2 mph9.6 mph7.6 mph7.7 mph4.6 mph5.1 mph5.8 mph6 mph5.5 mph4.8 mph5.1 mph6.3 mph4.7 mph4.5 mph5.4 mph3.5 mph2 mph4 mph5.6 mph3.8 mph4 mph4.5 mph5.2 mph5.2 mph2 mph1.5 mph7.4 mph12.9 mph10.1 mph7.7 mph
Wind
Direction
192°
SSW
201°
SSW
147°
SSE
135°
SE
157°
SSE
137°
SE
171°
S
353°
N
275°
W
80°
E
116°
ESE
113°
ESE
119°
ESE
140°
SE
151°
SSE
169°
S
164°
SSE
165°
SSE
161°
SSE
159°
SSE
174°
S
176°
S
118°
ESE
103°
ESE
92°
E
97°
E
113°
ESE
144°
SE
169°
S
178°
S
189°
S
190°
S
195°
SSW
185°
S
130°
SE
115°
ESE
133°
SE
161°
SSE
158°
SSE
203°
SSW
203°
SSW
205°
SSW
234°
SW
227°
SW
215°
SW
240°
WSW
268°
W
348°
NNW

Daily Forecast

Date High Low Precip. Humidity
Today
May 21

Rain
79 °F
73 °F
100%
92%
Sunday
May 22

Rain
81 °F
76 °F
65%
77%
Monday
May 23

Rain
79 °F
72 °F
97%
87%
Tuesday
May 24

Rain
78 °F
72 °F
51%
77%
Wednesday
May 25

Rain
81 °F
74 °F
61%
75%
Thursday
May 26

Rain
80 °F
78 °F
83%
78%
Friday
May 27

Rain
83 °F
76 °F
99%
67%
Saturday
May 28

Rain
81 °F
70 °F
66%
51%
Sunday
May 29

Clear
81 °F
71 °F
0%
50%
Monday
May 30

Clear
83 °F
73 °F
0%
49%
Tuesday
May 31

Clear
86 °F
74 °F
0%
51%
Wednesday
Jun 1

Clear
86 °F
79 °F
0%
57%
Thursday
Jun 2

Rain
83 °F
78 °F
33%
64%
Friday
Jun 3

Rain
83 °F
78 °F
24%
69%
Saturday
Jun 4

Clouds
85 °F
79 °F
0%
67%
Sunday
Jun 5

Clear
86 °F
78 °F
0%
51%

Temperature 8-14 Day Outlook



Precipitation 8-14 Day Outlook




Quick Links
Apalachee Bay - Ochlockonee Bay News
Apalachee Bay - Ochlockonee Bay Photos
Apalachee Bay - Ochlockonee Bay Videos




About Us
Contact Us
Site Map
Search Site
Advertise With Us
   
Apalachee.USGulf.info
THE APALACHEE BAY - OCHLOCKONEE BAY WEBSITE

Copyright 2022, Coastal Town
Privacy    |    Legal